Location: St. Louis
(38.6270°N, 90.1994°W)
Time: 15:23:37
(UTC-06:00)

JUGNU - Visible Passes

Search period start: 21 January 2022 00:00
Search period end: 31 January 2022 00:00
Orbit: 836 x 863 km, 20.0° (Epoch: 21 January)

Date Brightness Start Highest point End Pass type
(mag) Time Alt. Az. Time Alt. Az. Time Alt. Az.
21 Jan ? 19:33:55 10° S 19:34:56 10° S 19:35:05 10° S visible
22 Jan ? 19:18:14 10° S 19:19:35 11° S 19:20:52 10° SSE visible
23 Jan ? 19:02:40 10° S 19:04:13 11° S 19:05:48 10° SSE visible
24 Jan ? 18:47:10 10° SSW 18:48:52 11° S 18:50:36 10° SSE visible
25 Jan ? 18:31:44 10° SSW 18:33:32 11° S 18:35:20 10° SSE visible
26 Jan ? 18:16:20 10° SSW 18:18:11 11° S 18:20:01 10° SSE visible
27 Jan ? 18:01:00 10° SSW 18:02:50 11° S 18:04:40 10° SSE visible
28 Jan ? 17:45:42 10° SSW 17:47:29 11° S 17:49:17 10° SSE visible
